[[{"header":{"parameterUnit":"m.s-1","parameterCategory":1,"la1":30.2992,"la2":30.254,"lo1":-89.0895,"lo2":-89.0443,"dy":0.0025,"dx":0.0025,"nx":19,"ny":19,"refTime":"2026-05-11T21:00:00:Z","depth":0,"parameterNumber":2,"parameterNumberName":"U-component_of_WINDS"},"data":[0,0,0,-3.7396,-3.7399,-3.7507,-3.7507,-3.7678,-3.7679,0,0,0,0,0,0,0,0,0,0,0,-3.7382,-3.7384,-3.7396,-3.7399,-3.7507,-3.7507,-3.7677,-3.7679,0,0,0,0,0,0,0,0,0,0,0,-3.7381,-3.7383,-3.7385,-3.74,-3.7507,-3.7507,-3.7677,-3.7584,0,0,0,0,0,0,0,0,0,0,-3.7474,-3.7478,-3.7383,-3.7385,-3.74,-3.7507,-3.7507,-3.7579,-3.759,-3.7642,0,-3.7691,0,-3.7688,-3.7693,-3.7693,0,0,0,-3.7386,-3.7469,-3.7482,-3.7386,-3.7402,-3.7507,-3.7455,-3.7585,-3.7597,-3.7657,-3.7693,-3.7699,-3.7691,-3.7694,-3.7695,-3.8037,-3.8039,0,0,-3.738,-3.7411,-3.7474,-3.7491,-3.7474,-3.7451,-3.7458,-3.7592,-3.7635,-3.7694,-3.7702,-3.7694,-3.7695,-3.7697,-3.8035,-3.8037,0,0,0,-3.7372,-3.7408,-3.7416,-3.7485,-3.7502,-3.7455,-3.7463,-3.7629,-3.7629,-3.7704,-3.7696,-3.7696,-3.7699,-3.8032,-3.8036,-3.8178,0,0,0,-3.7368,-3.7403,-3.7415,-3.7435,-3.75,-3.7566,-3.7497,-3.762,-3.7634,-3.7695,-3.7697,-3.7701,-3.803,-3.8034,-3.8169,-3.8241,0,0,0,-3.7369,-3.7402,-3.7424,-3.7436,-3.7483,-3.7563,-3.7571,-3.7622,-3.763,-3.7694,-3.7701,-3.8028,-3.8033,-3.816,-3.8228,-3.8345,0,0,0,-3.738,-3.7547,-3.7427,-3.7611,-3.7483,-3.7649,-3.7569,-3.7691,-3.7762,-3.7698,-3.803,-3.8035,-3.8158,-3.8219,-3.8336,-3.8452,-3.8501,0,0,-3.7608,-3.7575,-3.7681,-3.7577,-3.7773,-3.763,-3.7846,-3.7882,-3.7859,-3.7979,-3.7987,-3.8172,-3.8227,-3.8343,-3.8761,-3.8801,0,0,0,-3.7765,-3.7842,-3.7886,-3.7956,-3.7987,-3.8021,-3.802,-3.8033,-3.8134,-3.7927,-3.8241,-3.8273,-3.834,-3.8395,-3.8429,-3.8487,-3.806,-3.8059,-3.8059,-3.8136,-3.8098,-3.8272,-3.8249,-3.8317,-3.8315,-3.8368,-3.8387,-3.8327,-3.8402,-3.844,-3.8698,-3.8762,-3.8788,-3.8849,-3.8493,-3.8494,-3.8494,-3.8494,-3.8472,-3.8578,-3.8496,-3.8636,-3.8596,-3.8714,-3.8719,-3.8674,-3.878,-3.8665,-3.8723,-3.8607,-3.8832,-3.8884,-3.8505,-3.8503,-3.8502,-3.8501,-3.85,-3.8716,-3.8761,-3.8773,-3.8872,-3.8953,-3.8921,-3.9028,-3.8986,-3.8947,-3.9003,-3.9042,-3.9039,-3.9036,-3.9023,-3.9024,-3.9025,-3.9026,-3.9026,-3.9027,-3.8967,-3.8976,-3.9071,-3.9119,-3.916,-3.9208,-3.9208,-3.9248,-3.9282,-3.9243,-3.9244,-3.9182,-3.8859,-3.8783,-3.9041,-3.9039,-3.9037,-3.9035,-3.9034,-3.9332,-3.9242,-3.9389,-3.943,-3.9485,-3.9571,-3.9514,-3.9599,-3.9625,-3.9681,-3.9605,-3.9371,-3.9336,-3.9309,-3.9246,-3.9608,-3.9608,-3.9608,-3.9608,-3.9542,-3.9518,-3.966,-3.973,-3.9792,-3.9757,-3.9928,-3.9931,-3.992,-3.9935,-3.9875,-3.9785,-3.9759,-3.9739,-3.9703,-3.9644,-4.01,-4.01,-4.01,-3.9767,-3.9748,-3.9901,-3.9888,-3.9928,-3.9965,-4.0126,-4.0211,-4.0179,-4.012,-3.9947,-3.9927,-3.9781,-3.9735,-3.9677,-3.9621,-3.9511,0,0]},{"header":{"parameterUnit":"m.s-1","parameterCategory":1,"la1":30.2992,"la2":30.254,"lo1":-89.0895,"lo2":-89.0443,"dy":0.0025,"dx":0.0025,"nx":19,"ny":19,"refTime":"2026-05-11T21:00:00:Z","depth":0,"parameterNumber":3,"parameterNumberName":"V-component_of_WINDS"},"data":[0,0,0,-3.8919,-3.892,-3.8966,-3.8967,-3.9043,-3.9043,0,0,0,0,0,0,0,0,0,0,0,-3.8917,-3.8917,-3.8919,-3.892,-3.8966,-3.8967,-3.9042,-3.9043,0,0,0,0,0,0,0,0,0,0,0,-3.8916,-3.8917,-3.8918,-3.892,-3.8966,-3.8967,-3.9042,-3.9001,0,0,0,0,0,0,0,0,0,0,-3.8953,-3.8963,-3.8917,-3.8918,-3.8921,-3.8966,-3.8967,-3.8999,-3.9004,-3.9029,0,-3.9056,0,-3.9051,-3.905,-3.905,0,0,0,-3.8911,-3.8959,-3.8961,-3.8919,-3.8921,-3.8966,-3.8943,-3.9001,-3.9007,-3.9036,-3.9057,-3.9059,-3.9052,-3.905,-3.9051,-3.9228,-3.9229,0,0,-3.8909,-3.8931,-3.8957,-3.8965,-3.896,-3.8942,-3.8945,-3.9004,-3.9029,-3.9057,-3.9061,-3.9053,-3.9051,-3.9052,-3.9227,-3.9228,0,0,0,-3.8907,-3.893,-3.893,-3.8962,-3.8969,-3.8943,-3.8947,-3.9026,-3.9024,-3.9061,-3.9054,-3.9051,-3.9053,-3.9226,-3.9227,-3.9311,0,0,0,-3.8905,-3.8929,-3.8929,-3.8943,-3.8969,-3.8999,-3.8967,-3.902,-3.9026,-3.9054,-3.9051,-3.9053,-3.9224,-3.9227,-3.9306,-3.9347,0,0,0,-3.891,-3.8929,-3.894,-3.8944,-3.8965,-3.8997,-3.8998,-3.9021,-3.9022,-3.905,-3.9054,-3.9223,-3.9226,-3.9301,-3.934,-3.9401,0,0,0,-3.892,-3.9014,-3.8941,-3.9042,-3.8965,-3.9048,-3.8998,-3.9058,-3.9092,-3.9052,-3.9224,-3.9227,-3.9299,-3.9335,-3.9396,-3.9458,-3.9485,0,0,-3.905,-3.903,-3.9087,-3.9024,-3.9126,-3.9039,-3.9152,-3.9162,-3.9144,-3.9201,-3.9205,-3.9307,-3.9339,-3.94,-3.9628,-3.9651,0,0,0,-3.9136,-3.9178,-3.92,-3.9233,-3.9242,-3.9253,-3.9243,-3.9246,-3.9293,-3.9178,-3.9344,-3.9363,-3.9397,-3.9426,-3.9445,-3.9473,-3.9241,-3.9241,-3.924,-3.9354,-3.9325,-3.9418,-3.9394,-3.9426,-3.9413,-3.9437,-3.9438,-3.94,-3.944,-3.9458,-3.96,-3.9634,-3.9648,-3.9678,-3.9486,-3.9486,-3.9487,-3.9487,-3.9543,-3.9598,-3.9542,-3.9613,-3.9581,-3.964,-3.9629,-3.96,-3.9649,-3.9584,-3.9614,-3.9547,-3.9673,-3.9698,-3.9493,-3.9492,-3.9491,-3.9491,-3.949,-3.9685,-3.9706,-3.9707,-3.975,-3.9786,-3.9757,-3.9806,-3.9775,-3.9746,-3.9774,-3.979,-3.9788,-3.9784,-3.9783,-3.9784,-3.9784,-3.9785,-3.9785,-3.9785,-3.9832,-3.983,-3.9876,-3.9891,-3.9907,-3.9924,-3.9909,-3.9923,-3.9931,-3.9905,-3.9905,-3.9863,-3.969,-3.9648,-3.9793,-3.9792,-3.9791,-3.979,-3.9789,-4.0038,-3.9985,-4.0057,-4.0072,-4.0086,-4.0124,-4.0081,-4.0113,-4.012,-4.0145,-4.0095,-3.9972,-3.995,-3.9934,-3.99,-4.0101,-4.0101,-4.0101,-4.0101,-4.0159,-4.0143,-4.0207,-4.0234,-4.0257,-4.0225,-4.0305,-4.0293,-4.0273,-4.0275,-4.0241,-4.0191,-4.0177,-4.0163,-4.0143,-4.011,-4.036,-4.036,-4.0361,-4.0284,-4.0269,-4.0344,-4.0323,-4.033,-4.0337,-4.0411,-4.0443,-4.0409,-4.037,-4.0277,-4.0266,-4.0185,-4.016,-4.0123,-4.0092,-4.0031,0,0]}]]